Date String (YYYY-MM-DD hh:mm:ss) UTC,Instrument flags,absolute air pressure of the measurement (hPa),sample flow rate (lpm),inlet stack bypass flow (lpm),air temperature of the measurement (°C),ambient temperature measured by the external sensor (°C),aerosol sample conditioner tube jacket temperature (°C),OPC LED temperature (°C),internal box temperature (°C),relative humidity of the measurement (%),span deviation,mass concentration of particles derived from Lorenz-Mie calculation of OPC scattering (μg/m³),mass concentration of particles derived from Lorenz-Mie calculation of OPC scattering (μg/m³),mass concentration of particles derived from Lorenz-Mie calculation of OPC scattering (μg/m³)
DateTimeUTC,F1_M11,P_M11,Q1_M11,Q2_M11,T1_M11,T2_M11,T3_M11,T4_M11,T5_M11,U1_M11,ZSPAN_M11,X2_M11,X0_M11,X1_M11
2023-08-08 01:00:00,SystemResetWarning,0834.3,5.01,000.00,029.2,027.9,000.0,037.7,031.0,33.5,-000.1,0005.84,0012.44,0005.00
2023-08-08 01:01:00,SystemResetWarning,0834.5,5.01,000.00,029.2,028.0,000.0,037.7,031.0,33.2,0000.2,0005.83,0012.65,0005.02
2023-08-08 01:02:00,SystemResetWarning,0834.2,5.00,000.00,029.3,028.0,000.0,037.7,031.0,33.1,0001.0,0005.85,0013.62,0005.02
2023-08-08 01:03:00,SystemResetWarning,0834.0,4.98,000.00,029.3,026.6,000.0,037.6,030.9,33.8,0000.7,0005.89,0013.64,0005.02
2023-08-08 01:04:00,SystemResetWarning,0833.8,5.01,000.00,029.2,025.5,000.0,037.5,030.7,34.3,0000.0,0005.89,0013.57,0005.02
2023-08-08 01:05:00,SystemResetWarning,0833.6,5.00,000.00,029.2,025.5,000.0,037.5,030.5,34.9,0000.0,0005.91,0013.38,0005.01
2023-08-08 01:06:00,SystemResetWarning,0833.4,5.01,000.00,029.1,025.8,000.0,037.5,030.4,35.3,0000.1,0005.93,0013.46,0005.02
2023-08-08 01:07:00,SystemResetWarning,0833.4,5.01,000.00,029.3,026.2,000.0,037.5,030.7,34.6,0000.2,0005.95,0012.71,0005.02
2023-08-08 01:08:00,SystemResetWarning,0833.4,4.98,000.00,029.5,026.6,000.0,037.6,030.8,32.9,0000.4,0005.96,0012.70,0005.02
2023-08-08 01:09:00,SystemResetWarning,0833.2,5.02,000.00,029.7,026.9,000.0,037.6,030.9,32.7,0000.3,0006.02,0012.25,0005.04
2023-08-08 01:10:00,SystemResetWarning,0833.3,4.99,000.00,029.8,027.2,000.0,037.7,031.0,34.3,0000.0,0006.09,0013.66,0005.05
2023-08-08 01:11:00,SystemResetWarning,0833.4,4.99,000.00,029.8,027.5,000.0,037.8,031.0,33.8,0000.0,0006.10,0014.35,0005.05
2023-08-08 01:12:00,SystemResetWarning,0833.5,5.02,000.00,029.9,027.7,000.0,037.8,031.1,33.1,0000.3,0006.09,0014.90,0005.05
2023-08-08 01:13:00,SystemResetWarning,0833.7,5.01,000.00,029.9,027.9,000.0,037.9,031.1,33.3,-000.1,0006.11,0014.64,0005.06
2023-08-08 01:14:00,SystemResetWarning,0833.7,5.00,000.00,030.0,028.0,000.0,038.0,031.2,33.4,-000.3,0006.08,0015.56,0005.06
2023-08-08 01:15:00,SystemResetWarning,0833.7,4.98,000.00,030.0,027.0,000.0,037.9,031.0,34.3,-000.3,0006.11,0016.45,0005.07
2023-08-08 01:16:00,SystemResetWarning,0833.7,5.00,000.00,030.0,025.7,000.0,037.9,030.8,34.8,0000.3,0006.16,0016.39,0005.08
2023-08-08 01:17:00,SystemResetWarning,0833.7,5.01,000.00,030.0,025.5,000.0,037.9,030.7,35.6,0000.3,0006.20,0016.95,0005.09
2023-08-08 01:18:00,SystemResetWarning,0833.7,5.02,000.00,030.0,025.7,000.0,037.9,030.7,34.9,0000.1,0006.20,0016.79,0005.08
2023-08-08 01:19:00,SystemResetWarning,0833.7,4.96,000.00,030.2,026.1,000.0,038.0,030.8,33.6,-000.4,0006.14,0016.57,0005.09
2023-08-08 01:20:00,SystemResetWarning,0833.6,5.02,000.00,030.3,026.5,000.0,038.0,030.9,32.1,-000.2,0006.11,0016.39,0005.08
2023-08-08 01:21:00,SystemResetWarning,0833.6,4.98,000.00,030.4,026.9,000.0,038.1,031.0,31.3,-000.3,0006.10,0015.13,0005.08
2023-08-08 01:22:00,SystemResetWarning,0833.5,5.00,000.00,030.4,027.2,000.0,038.2,031.1,31.0,-000.6,0006.06,0014.55,0005.06
2023-08-08 01:23:00,SystemResetWarning,0833.4,5.00,000.00,030.4,027.5,000.0,038.3,031.1,31.5,-000.5,0006.08,0014.34,0005.06
2023-08-08 01:24:00,SystemResetWarning,0833.4,5.01,000.00,030.5,027.7,000.0,038.3,031.2,32.8,-000.2,0006.10,0014.71,0005.06
2023-08-08 01:25:00,SystemResetWarning,0833.4,5.01,000.00,030.5,027.9,000.0,038.4,031.3,31.7,-000.1,0006.11,0014.70,0005.06
2023-08-08 01:26:00,SystemResetWarning,0833.4,5.00,000.00,030.5,028.1,000.0,038.5,031.3,31.5,-000.1,0006.15,0013.83,0005.04
2023-08-08 01:27:00,SystemResetWarning,0833.4,4.98,000.00,030.6,027.5,000.0,038.4,031.3,31.2,-000.4,0006.10,0014.12,0005.04
2023-08-08 01:28:00,SystemResetWarning,0833.4,5.00,000.00,030.5,026.0,000.0,038.3,031.0,31.1,-000.6,0006.07,0014.44,0005.04
2023-08-08 01:29:00,SystemResetWarning,0833.3,5.00,000.00,030.5,025.5,000.0,038.3,030.9,31.2,-000.2,0006.07,0014.57,0005.05
2023-08-08 01:30:00,SystemResetWarning,0833.3,5.01,000.00,030.3,025.6,000.0,038.3,030.7,32.4,0000.3,0006.11,0015.69,0005.04
2023-08-08 01:31:00,SystemResetWarning,0833.3,5.01,000.00,030.3,026.0,000.0,038.4,030.7,32.4,0001.1,0006.11,0015.93,0005.02
2023-08-08 01:32:00,SystemResetWarning,0833.4,5.00,000.00,030.2,026.4,000.0,038.4,030.9,32.1,0001.5,0006.08,0016.33,0005.03
2023-08-08 01:33:00,SystemResetWarning,0833.4,5.00,000.00,030.2,026.8,000.0,038.4,031.0,32.0,0001.6,0006.07,0016.52,0005.02
2023-08-08 01:34:00,SystemResetWarning,0833.4,5.00,000.00,030.2,027.1,000.0,038.5,031.1,31.4,0002.0,0006.06,0016.72,0005.01
2023-08-08 01:35:00,SystemResetWarning,0833.4,5.00,000.00,030.2,027.4,000.0,038.5,031.1,31.5,0000.7,0006.07,0015.71,0005.00
2023-08-08 01:36:00,SystemResetWarning,0833.3,5.00,000.00,030.2,027.6,000.0,038.5,031.2,31.3,0002.3,0006.05,0014.89,0005.00
2023-08-08 01:37:00,SystemResetWarning,0833.2,5.00,000.00,030.2,027.8,000.0,038.5,031.2,31.2,0002.3,0006.00,0014.57,0004.99
2023-08-08 01:38:00,SystemResetWarning,0833.2,5.00,000.00,030.2,028.0,000.0,038.5,031.3,30.7,0001.9,0006.01,0014.21,0004.98
2023-08-08 01:39:00,SystemResetWarning,0833.2,5.00,000.00,030.2,027.9,000.0,038.5,031.3,30.4,0002.2,0006.01,0013.48,0004.96
2023-08-08 01:40:00,SystemResetWarning,0833.1,4.98,000.00,030.2,026.3,000.0,038.3,031.1,30.2,0002.5,0006.01,0014.20,0004.93
2023-08-08 01:41:00,SystemResetWarning,0833.1,5.00,000.00,030.2,025.4,000.0,038.2,030.9,30.0,0002.8,0006.02,0014.43,0004.93
2023-08-08 01:42:00,SystemResetWarning,0833.1,5.00,000.00,030.0,025.5,000.0,038.2,030.7,30.1,0001.9,0006.03,0014.38,0004.91
2023-08-08 01:43:00,SystemResetWarning,0833.1,5.01,000.00,029.9,025.8,000.0,038.3,030.7,30.3,0001.1,0006.00,0014.15,0004.88
2023-08-08 01:44:00,SystemResetWarning,0833.0,5.00,000.00,029.9,026.3,000.0,038.3,030.8,29.8,0001.3,0005.98,0013.45,0004.88
2023-08-08 01:45:00,SystemResetWarning,0833.0,4.99,000.00,029.9,026.6,000.0,038.3,030.9,29.6,0001.4,0005.96,0013.17,0004.87
2023-08-08 01:46:00,SystemResetWarning,0833.0,5.00,000.00,029.8,027.0,000.0,038.3,031.0,29.7,0000.7,0005.91,0013.17,0004.86
2023-08-08 01:47:00,SystemResetWarning,0833.1,5.01,000.00,029.9,027.3,000.0,038.3,031.0,29.8,-000.7,0005.88,0013.42,0004.86
2023-08-08 01:48:00,SystemResetWarning,0833.1,5.00,000.00,029.9,027.5,000.0,038.3,031.1,29.8,-000.8,0005.90,0013.84,0004.86
2023-08-08 01:49:00,SystemResetWarning,0833.0,5.01,000.00,029.9,027.7,000.0,038.3,031.1,30.0,-000.4,0005.92,0014.17,0004.87
2023-08-08 01:50:00,SystemResetWarning,0833.1,4.99,000.00,029.9,027.9,000.0,038.3,031.2,30.3,0000.2,0005.90,0014.04,0004.88
2023-08-08 01:51:00,SystemResetWarning,0833.2,4.99,000.00,029.9,028.0,000.0,038.3,031.2,30.3,0000.0,0005.84,0012.88,0004.87
2023-08-08 01:52:00,SystemResetWarning,0833.4,4.99,000.00,029.9,028.2,000.0,038.3,031.2,30.3,-000.6,0005.81,0011.92,0004.86
2023-08-08 01:53:00,SystemResetWarning,0833.2,4.99,000.00,029.9,028.2,000.0,038.4,031.3,29.8,0000.1,0005.83,0011.48,0004.88
2023-08-08 01:54:00,SystemResetWarning,0833.0,5.00,000.00,029.9,027.0,000.0,038.2,031.1,30.3,0000.2,0005.84,0011.54,0004.88
2023-08-08 01:55:00,SystemResetWarning,0833.1,5.02,000.00,029.9,025.8,000.0,038.1,030.9,30.6,0000.3,0005.87,0011.53,0004.89
2023-08-08 01:56:00,SystemResetWarning,0833.0,5.01,000.00,029.8,025.5,000.0,038.1,030.7,30.9,0000.4,0005.87,0011.51,0004.90
2023-08-08 01:57:00,SystemResetWarning,0833.0,4.99,000.00,029.7,025.7,000.0,038.1,030.6,31.1,0001.3,0005.90,0011.96,0004.91
2023-08-08 01:58:00,SystemResetWarning,0833.1,5.00,000.00,029.6,026.1,000.0,038.1,030.7,31.2,0002.1,0005.93,0012.27,0004.92
2023-08-08 01:59:00,SystemResetWarning,0833.3,4.99,000.00,029.6,026.5,000.0,038.1,030.8,31.1,0002.1,0005.92,0011.81,0004.91
